SL-16 DEB, 26968

Orbit data source: Space-Track

SL-16 DEB, 26968 is space debris in LEO originally from a launch on Fri, 26 Mar 1993 UTC launched from the Tyuratam Missile And Space Complex (TTMTR). Debris objects in space refer to the collection of defunct objects orbiting the Earth. Examples of debris include non-operational satellites, rocket bodies, and fragments generated from explosions, collisions, or faulty payload assembly.

Loading next visibility...
Identifier
26968, 1993-016AJ
Orbit
LEO
Country
Flag of CISCIS
Related business
Manufacturer
Unknown
Mission
Spacecraft
Bus & Motor
Unknown
Mass
Unknown
Launch date (UTC)
1993-03-26 (33 years ago)
Launch vehicle
Unknown
Launch site
Tyuratam Missile And Space Complex (TTMTR)
Object type
Payload
Rocket body
Debris
Shape & HBR
Unknown shape, 0.1 m
Radar Cross Section
Small (<0.1 m²)

Expand to show TLE details & history
Last TLE update: 13 hours ago

TLE from 13 hours ago
0 SL-16 DEB
1 26968U 93016AJ  25309.29575769  .00003186  00000-0  97589-3 0  9998
2 26968  70.9977  35.4343 0009744 242.4563 174.3241 14.42467066697008
Epoch: 2025-11-05T07:05Z
TLE epoch observation values (Epoch: 2025-11-05T07:05:53.464Z)
Latitude
52.39993°
Longitude
-89.39895°
Altitude
765.247 km
Speed
7.473 km/s
True Right ascension
04h 07m 22s
True Declination
52° 14' 01"
Sunlit
Object was in full shadow at epoch
Visualization orbit readout
Latitude
Unknown
Longitude
Unknown
Altitude
Unknown
Speed
Unknown
Apparent Right ascension
Unknown
Apparent Declination
Unknown
Sunlit
N/A
Visualization observer readout
Local Sidereal Time
16:18:31
Azimuth
Unknown
Elevation
Unknown
Doppler factor
Unknown
Orbital elements
Apogee altitude
755.201 km
Perigee altitude
741.313 km
Semi-major axis
7,126.394 km
Eccentricity
0.00097
Inclination
70.9977°
RAAN
35.4343°
Arg. of periapsis
242.4563°
True anomaly
174.33513°
Mean anomaly
174.3241°
Eccentric anomaly
174.32962°
Mean motion
3.60777 °/min
Orbital period
99.78 mins
BSTAR
0.00097589
Loading maneuver chart data...
Computing Atmospheric mass density...
Loading historical data...
Loading historical data...
Loading historical data...
Loading historical data...
Loading historical data...
Loading historical data...
Loading historical data...

Documentation

Showing up to 5 results
|